FW8328 Weather Reports


Display with metric or nautical units.
time (UTC)temp
F
wind
direction
speed
MPH
gust
MPH
rain 1hr
in
rain 24hr
in
rain mn
in
humidity
%
barometer
mb
20260504081545 41 0 0.0 4.0 0.00 0.00 0.00 84 1008.6
20260504044546 33 0 0.0 0.0 0.00 0.00 0.00 85 1008.8
20260504043047 33 0 0.0 0.0 0.00 0.00 0.00 83 1009.0
20260504041546 33 0 0.0 0.0 0.00 0.00 0.00 82 1009.0
20260504040100 33 0 0.0 2.0 0.00 0.00 0.00 82 1008.8
20260504034538 34 0 0.0 2.0 0.00 0.00 0.00 81 1008.7
20260504033049 34 0 0.0 0.0 0.00 0.00 0.00 80 1008.7
20260504031555 35 0 0.0 0.0 0.00 0.00 0.00 79 1008.8
20260504030047 35 0 0.0 0.0 0.00 0.00 0.00 78 1008.8
20260504024542 36 0 0.0 0.0 0.00 0.00 0.00 77 1008.9
20260504023043 37 0 0.0 0.0 0.00 0.00 0.00 76 1009.0
20260504021545 37 0 0.0 0.0 0.00 0.00 0.00 74 1009.1
20260504020058 38 0 0.0 0.0 0.00 0.00 0.00 73 1008.9
20260504014545 39 0 0.0 0.0 0.00 0.01 0.00 72 1008.9
20260504013045 40 0 0.0 0.0 0.00 0.01 0.00 71 1008.7
20260504011542 41 0 0.0 0.0 0.00 0.01 0.00 69 1008.6
20260504010050 42 0 0.0 0.0 0.00 0.01 0.00 69 1008.3
20260504004546 43 0 0.0 0.0 0.00 0.02 0.00 66 1008.1
20260504003046 44 0 0.0 0.0 0.00 0.02 0.00 65 1007.9
20260504001550 44 0 0.0 0.0 0.00 0.02 0.00 61 1007.8
20260504000047 45 86 1.0 2.0 0.00 0.02 0.00 61 1007.7
20260503234602 46 0 0.0 3.0 0.00 0.02 0.00 60 1007.6
20260503233050 46 0 1.0 3.0 0.00 0.02 0.00 59 1007.5
20260503231550 47 0 0.0 4.0 0.00 0.02 0.00 58 1007.4
20260503230046 47 78 0.0 2.0 0.00 0.02 0.00 58 1007.3
20260503224541 48 93 0.0 3.0 0.00 0.02 0.00 56 1007.4
20260503223047 48 108 1.0 3.0 0.00 0.02 0.00 54 1007.4
20260503221557 48 0 0.0 4.0 0.00 0.02 0.00 55 1007.4
20260503220049 48 126 0.0 4.0 0.00 0.02 0.00 56 1007.2
20260503214542 49 0 1.0 7.0 0.00 0.06 0.00 52 1007.2
20260503213044 49 71 2.0 7.0 0.00 0.06 0.00 51 1007.3
20260503211545 48 119 2.0 9.0 0.00 0.06 0.00 55 1007.3
20260503210047 48 63 2.0 8.0 0.00 0.06 0.00 53 1007.2
20260503204546 50 67 1.0 6.0 0.00 0.06 0.00 51 1007.0
20260503203054 48 80 2.0 6.0 0.00 0.06 0.00 51 1006.9
20260503201541 49 42 1.0 9.0 0.00 0.06 0.00 50 1006.8
20260503200048 49 53 1.0 7.0 0.00 0.06 0.00 49 1006.8
20260503194556 48 90 1.0 7.0 0.00 0.06 0.00 51 1006.9
20260503193045 48 113 1.0 7.0 0.00 0.06 0.00 50 1007.0
20260503191547 48 269 2.0 9.0 0.00 0.06 0.00 51 1006.9
20260503190043 49 60 2.0 7.0 0.00 0.06 0.00 51 1006.8
20260503184542 48 328 1.0 7.0 0.00 0.07 0.00 52 1007.0
20260503183050 49 103 2.0 10.0 0.00 0.07 0.00 52 1006.9
20260503181547 48 0 2.0 6.0 0.00 0.07 0.00 51 1006.8
20260503180057 49 147 2.0 7.0 0.00 0.07 0.00 53 1006.9
20260503174546 50 106 2.0 8.0 0.00 0.10 0.00 49 1006.7
20260503173046 50 88 1.0 7.0 0.00 0.10 0.00 50 1006.6
20260503171549 49 77 2.0 8.0 0.00 0.10 0.00 54 1006.8